Location: Cincinnati Observatory Center
(39.1389°N, 84.4225°W)
Time: 07:52:20
(UTC-05:00)

Amateur Radio Satellites - All Passes

Search period start: 13 February 2016 07:22
Search period end: 14 February 2016 07:22
Location: Cincinnati Observatory Center, 39.1389°N, 84.4225°W

Satellite Date Start Highest point End Downlink Frequencies (MHz)
Time Altitude Azimuth
Cubesat XI-IV 13 Feb 07:23:22 07:28:43 65° 287° (WNW) 07:34:02 437.490
GOMX 1 13 Feb 07:23:47 07:27:44 34° 97° (E) 07:31:32 467.674
STRAND 1 13 Feb 07:29:50 07:34:45 49° 260° (W) 07:39:44 437.568
GONETS M04 13 Feb 07:31:22 07:36:38 18° 78° (ENE) 07:41:53
O/OREOS (USA 219) 13 Feb 07:50:00 07:54:29 89° 290° (WNW) 07:59:01 437.305
CUTE 1.7 + AOD 2 13 Feb 08:03:53 08:06:58 19° 94° (E) 08:10:04 437.475
SEEDS 13 Feb 08:04:19 08:06:39 14° 92° (E) 08:08:58 437.485
Cosmos 2499 13 Feb 08:14:30 08:18:48 15° 76° (ENE) 08:23:07 435.465 / 435.565
BRITE-PL 13 Feb 08:15:15 08:19:14 29° 291° (WNW) 08:22:59 437.365/2234.400
LilacSat-2 13 Feb 08:22:42 08:23:28 10° 295° (WNW) 08:24:14 437.200
DOVE 4 13 Feb 08:23:56 08:28:08 85° 102° (ESE) 08:32:16 437.250
PRISM 13 Feb 08:32:38 08:36:12 28° 263° (W) 08:39:50 437.425
CUBEBUG 2 13 Feb 08:34:48 08:36:18 12° 91° (E) 08:37:50 437.445
AO-85 13 Feb 08:40:49 08:44:03 16° 106° (ESE) 08:47:22 145.980
CANX-2 13 Feb 08:48:41 08:53:00 73° 102° (ESE) 08:57:16 2200.000
CINEMA 3 13 Feb 08:50:53 08:54:58 54° 100° (E) 08:59:07 145.822/145.860
CUTE-I 13 Feb 08:51:16 08:53:02 12° 301° (WNW) 08:54:48 437.470
UNISAT 6 13 Feb 08:58:21 08:59:28 11° 63° (ENE) 09:00:36 437.425
GOMX 1 13 Feb 09:02:36 09:05:34 18° 294° (WNW) 09:08:27 467.674
HO-68 13 Feb 09:03:53 09:11:08 79° 105° (ESE) 09:18:19 435.675
ZACube-1 13 Feb 09:12:12 09:14:52 16° 93° (E) 09:17:31 437.345
COMPASS 1 13 Feb 09:17:20 09:21:35 75° 102° (ESE) 09:25:48 437.405
FUNcube-1 13 Feb 09:19:00 09:21:58 18° 94° (E) 09:24:57 145.935
GONETS M04 13 Feb 09:23:32 09:32:13 85° 277° (W) 09:41:00
PCSat 13 Feb 09:27:41 09:31:44 22° 106° (ESE) 09:35:48 145.827
AIST 1 13 Feb 09:28:38 09:29:49 11° 84° (E) 09:31:00
RS-15 13 Feb 09:31:45 09:38:30 18° 98° (E) 09:45:23 29.354- 29.394
SEEDS 13 Feb 09:38:30 09:42:35 45° 287° (WNW) 09:46:38 437.485
CUTE 1.7 + AOD 2 13 Feb 09:39:01 09:42:53 34° 289° (WNW) 09:46:45 437.475
JUGNU 13 Feb 09:40:07 09:41:13 11° 184° (S) 09:42:22 437.505
ANTELSAT 13 Feb 09:40:16 09:44:04 31° 71° (ENE) 09:47:51 437.575/2403.000
AAUSAT CUBESAT 2 13 Feb 09:42:24 09:46:36 68° 284° (WNW) 09:50:46 437.432
Oscar 11 13 Feb 09:45:21 09:49:35 49° 99° (E) 09:53:48 145.826/435.025
TIGRISAT 13 Feb 09:45:44 09:49:37 34° 71° (ENE) 09:53:29 435.000
POLYITAN 1 13 Feb 10:01:22 10:03:20 13° 64° (ENE) 10:05:19 437.675
QB50P2 13 Feb 10:01:38 10:03:47 14° 65° (ENE) 10:05:54 145.880/145.840
UWE-3 13 Feb 10:01:40 10:05:55 87° 105° (ESE) 10:10:16 435.000/436.395/437.385
Cosmos 2499 13 Feb 10:01:41 10:10:25 79° 94° (E) 10:19:19 435.465 / 435.565
CUBEBUG 2 13 Feb 10:09:06 10:13:14 54° 286° (WNW) 10:17:27 437.445
AO-85 13 Feb 10:18:39 10:23:58 69° 303° (WNW) 10:29:29 145.980
DELFI C3 13 Feb 10:26:21 10:30:25 81° 102° (ESE) 10:34:28 145.870
POPSAT HIP 1 13 Feb 10:28:50 10:32:19 25° 69° (ENE) 10:35:48 437.405
CINEMA 3 13 Feb 10:30:01 10:31:41 12° 295° (WNW) 10:33:20 145.822/145.860
DUCHIFAT 1 13 Feb 10:30:49 10:34:15 25° 69° (ENE) 10:37:41 145.980
NANOSAT C BR1 13 Feb 10:31:02 10:34:33 26° 69° (ENE) 10:38:04 145.865
UNISAT 6 13 Feb 10:31:23 10:35:39 65° 258° (WSW) 10:39:54 437.425
HUMSAT D 13 Feb 10:33:10 10:37:05 37° 98° (E) 10:41:00 437.325/437.525
QB50P1 13 Feb 10:40:40 10:44:31 35° 71° (ENE) 10:48:22 145.935-145.965
ZACube-1 13 Feb 10:47:18 10:51:18 40° 287° (WNW) 10:55:20 437.345
HO-68 13 Feb 10:53:05 10:58:01 20° 303° (WNW) 11:02:58 435.675
FUNcube-1 13 Feb 10:54:26 10:58:18 35° 288° (WNW) 11:02:15 145.935
AIST 1 13 Feb 11:02:31 11:06:50 58° 279° (W) 11:11:12
PCSat 13 Feb 11:09:31 11:14:45 49° 303° (WNW) 11:20:02 145.827
VELOX 1 13 Feb 11:12:14 11:15:16 18° 94° (E) 11:18:17 145.980
BUGSAT 1 13 Feb 11:15:23 11:19:19 41° 72° (ENE) 11:23:14 437.445
ANTELSAT 13 Feb 11:17:40 11:20:50 20° 266° (W) 11:24:01 437.575/2403.000
UKube-1 13 Feb 11:20:54 11:24:05 20° 95° (E) 11:27:15 .
Oscar 11 13 Feb 11:22:53 11:25:17 15° 295° (WNW) 11:27:41 145.826/435.025
SRMSAT 13 Feb 11:23:10 11:24:33 11° 182° (S) 11:25:56 437.500
TIGRISAT 13 Feb 11:23:25 11:26:23 18° 266° (W) 11:29:23 435.000
GONETS M04 13 Feb 11:25:17 11:30:24 17° 298° (WNW) 11:35:35
50 SAT 13 Feb 11:27:48 11:31:16 32° 98° (E) 11:34:42 437.505
AISAT 13 Feb 11:28:59 11:32:49 29° 97° (E) 11:36:38 437.250
POLYITAN 1 13 Feb 11:34:35 11:38:42 52° 260° (W) 11:42:50 437.675
QB50P2 13 Feb 11:35:02 11:39:09 50° 260° (W) 11:43:17 145.880/145.840
CUBEBUG 1 13 Feb 11:37:25 11:41:13 29° 96° (E) 11:44:59 437.445
RS-15 13 Feb 11:37:49 11:48:55 84° 118° (ESE) 12:00:39 29.354- 29.394
DX 1 13 Feb 11:39:11 11:43:15 38° 99° (E) 11:47:17 434.975-435.025
Oscar 19 13 Feb 11:48:34 11:50:51 13° 61° (ENE) 11:53:08 437.125/150
Cosmos 2499 13 Feb 11:57:56 12:04:29 23° 294° (WNW) 12:11:07 435.465 / 435.565
AO-85 13 Feb 12:02:46 12:05:32 14° 323° (NW) 12:08:20 145.980
POPSAT HIP 1 13 Feb 12:04:32 12:08:01 25° 264° (W) 12:11:32 437.405
ESTCUBE 1 13 Feb 12:05:52 12:10:26 85° 101° (E) 12:14:57 437.505/2401.250
DUCHIFAT 1 13 Feb 12:06:22 12:09:52 25° 264° (W) 12:13:22 145.980
NANOSAT C BR1 13 Feb 12:06:49 12:10:15 24° 265° (W) 12:13:41 145.865
HUMSAT D 13 Feb 12:09:38 12:12:26 18° 293° (WNW) 12:15:15 437.325/437.525
SO-50 13 Feb 12:10:43 12:14:06 19° 43° (NE) 12:17:24 436.795
QB50P1 13 Feb 12:17:29 12:20:24 18° 266° (W) 12:23:19 145.935-145.965
JAS-2 13 Feb 12:25:11 12:31:26 30° 66° (ENE) 12:37:12 435.910
DANDE 13 Feb 12:26:13 12:31:40 27° 66° (ENE) 12:35:58 436.750
VELOX 1 13 Feb 12:47:48 12:51:53 38° 289° (WNW) 12:55:56 145.980
Gurwin Techsat 1B 13 Feb 12:49:28 12:53:06 19° 63° (ENE) 12:56:44 435.225
BUGSAT 1 13 Feb 12:52:28 12:54:53 15° 267° (W) 12:57:17 437.445
TISAT 1 13 Feb 12:52:57 12:56:23 25° 96° (E) 12:59:49 437.305
UKube-1 13 Feb 12:56:19 13:00:12 33° 290° (WNW) 13:04:03 .
SPROUT 13 Feb 12:58:25 13:02:42 86° 101° (E) 13:06:58 437.525
CUSAT 1 13 Feb 13:02:21 13:07:40 78° 263° (W) 13:11:36 437.405
50 SAT 13 Feb 13:02:35 13:05:00 16° 293° (WNW) 13:07:26 437.505
AISAT 13 Feb 13:05:39 13:09:10 24° 292° (WNW) 13:12:40 437.250
ITAMSAT 1 13 Feb 13:05:44 13:08:16 14° 61° (ENE) 13:10:50 435.822/435.867
CUBEBUG 1 13 Feb 13:13:55 13:17:22 23° 292° (WNW) 13:20:48 437.445
DX 1 13 Feb 13:16:10 13:19:09 18° 294° (WNW) 13:22:07 434.975-435.025
Oscar 19 13 Feb 13:24:17 13:29:29 79° 258° (WSW) 13:34:40 437.125/150
ITUPSAT 1 13 Feb 13:48:02 13:51:20 18° 93° (E) 13:54:38 437.325
SO-50 13 Feb 13:50:18 13:55:02 62° 242° (WSW) 13:59:35 436.795
RS-15 13 Feb 13:52:57 14:02:50 33° 324° (NW) 14:13:14 29.354- 29.394
BEESAT 13 Feb 13:53:34 13:57:13 21° 94° (E) 14:00:50 436.000
AO-7 13 Feb 14:07:26 14:14:16 29° 57° (ENE) 14:21:05 29.400- 29.500
JAS-2 13 Feb 14:08:45 14:16:09 53° 260° (W) 14:22:55 435.910
DANDE 13 Feb 14:09:00 14:14:48 37° 272° (W) 14:19:16 436.750
YUBILEINY 13 Feb 14:09:22 14:18:02 56° 78° (ENE) 14:26:36 435.215
Cosmos 2491 13 Feb 14:15:54 14:23:14 32° 84° (E) 14:30:34 435.465 / 435.565
ISS 13 Feb 14:23:29 14:26:35 41° 136° (SE) 14:29:40 145.825
Gurwin Techsat 1B 13 Feb 14:27:25 14:32:36 54° 260° (W) 14:37:49 435.225
TISAT 1 13 Feb 14:28:34 14:31:59 25° 291° (WNW) 14:35:23 437.305
ITAMSAT 1 13 Feb 14:41:54 14:47:05 75° 257° (WSW) 14:52:18 435.822/435.867
SWISSCUBE 13 Feb 14:45:34 14:50:24 83° 104° (ESE) 14:55:12 437.505
HORYU 2 13 Feb 14:55:36 14:56:48 11° 62° (ENE) 14:57:59 437.375
Cosmos 2504 13 Feb 15:07:23 15:14:26 28° 68° (ENE) 15:21:03 435.465 / 435.565
M-CUBED/EXP-1 PRIME 13 Feb 15:20:00 15:23:08 30° 67° (ENE) 15:26:07 437.505
ITUPSAT 1 13 Feb 15:24:47 15:29:23 44° 288° (WNW) 15:33:56 437.325
AUBIESAT-1 13 Feb 15:26:09 15:29:14 28° 67° (ENE) 15:32:12 437.475
BEESAT 13 Feb 15:30:40 15:35:05 38° 290° (WNW) 15:39:30 436.000
STARS 13 Feb 15:37:24 15:40:25 18° 94° (E) 15:43:25 437.465
BEESAT 3 13 Feb 15:45:35 15:48:36 21° 112° (ESE) 15:51:38 437.485
AO-7 13 Feb 15:58:07 16:06:25 66° 256° (WSW) 16:14:45 29.400- 29.500
ISS 13 Feb 16:00:24 16:03:07 24° 333° (NNW) 16:05:50 145.825
KKS-1 13 Feb 16:04:16 16:08:41 70° 102° (ESE) 16:13:05 437.445
YUBILEINY 13 Feb 16:06:58 16:14:17 31° 277° (W) 16:21:36 435.215
Cosmos 2491 13 Feb 16:11:10 16:19:37 53° 283° (WNW) 16:28:06 435.465 / 435.565
RS-15 13 Feb 16:12:58 16:20:40 19° 359° (N) 16:28:34 29.354- 29.394
BEESAT 2 13 Feb 16:16:41 16:20:11 29° 114° (ESE) 16:23:43 435.950
O/OREOS (USA 219) 13 Feb 16:23:09 16:25:52 15° 55° (NE) 16:28:34 437.305
SWISSCUBE 13 Feb 16:26:13 16:27:29 11° 300° (WNW) 16:28:45 437.505
MOZHAYETS 4 13 Feb 16:27:20 16:31:51 49° 99° (E) 16:36:22
HORYU 2 13 Feb 16:28:21 16:32:45 71° 258° (WSW) 16:37:11 437.375
CUTE-I 13 Feb 16:51:36 16:55:00 17° 62° (ENE) 16:58:24 437.470
M-CUBED/EXP-1 PRIME 13 Feb 16:55:52 16:57:49 14° 260° (W) 16:59:43 437.505
Cosmos 2504 13 Feb 17:00:04 17:08:22 59° 269° (W) 17:16:03 435.465 / 435.565
AUBIESAT-1 13 Feb 17:01:49 17:03:51 15° 260° (W) 17:05:51 437.475
Cubesat XI-IV 13 Feb 17:05:47 17:09:54 23° 65° (ENE) 17:14:03 437.490
AIST 2 13 Feb 17:09:56 17:10:12 10° 107° (ESE) 17:10:28 435.215
STARS 13 Feb 17:12:53 17:16:54 37° 289° (WNW) 17:20:55 437.465
AO-85 13 Feb 17:13:13 17:15:54 14° 37° (NE) 17:18:29 145.980
CUBESAT XI-V 13 Feb 17:20:22 17:23:34 18° 92° (E) 17:26:44 437.345
BEESAT 3 13 Feb 17:22:35 17:26:09 31° 308° (NW) 17:29:46 437.485
LilacSat-2 13 Feb 17:27:28 17:30:27 22° 70° (ENE) 17:33:26 437.200
KKS-1 13 Feb 17:43:25 17:44:39 11° 298° (WNW) 17:45:54 437.445
BRITE-PL 13 Feb 17:45:24 17:50:16 31° 69° (ENE) 17:54:59 437.365/2234.400
BEESAT 2 13 Feb 17:54:46 17:58:04 24° 311° (NW) 18:01:23 435.950
O/OREOS (USA 219) 13 Feb 18:01:08 18:05:38 56° 253° (WSW) 18:10:07 437.305
MOZHAYETS 4 13 Feb 18:05:44 18:08:37 16° 295° (WNW) 18:11:29
PCSat 13 Feb 18:16:09 18:19:40 17° 45° (NE) 18:23:09 145.827
RS-15 13 Feb 18:28:17 18:38:43 32° 34° (NE) 18:49:18 29.354- 29.394
CUTE-I 13 Feb 18:29:16 18:34:31 61° 259° (W) 18:39:49 437.470
GOMX 1 13 Feb 18:29:42 18:34:39 39° 72° (ENE) 18:39:22 467.674
AIST 2 13 Feb 18:43:58 18:48:07 68° 302° (WNW) 18:52:16 435.215
Cubesat XI-IV 13 Feb 18:44:38 18:49:40 43° 261° (W) 18:54:47 437.490
AO-85 13 Feb 18:52:13 18:57:21 80° 57° (ENE) 19:02:01 145.980
CUBESAT XI-V 13 Feb 18:56:42 19:01:08 42° 288° (WNW) 19:05:31 437.345
CUTE 1.7 + AOD 2 13 Feb 18:56:59 18:58:47 13° 64° (ENE) 19:00:36 437.475
LilacSat-2 13 Feb 19:01:38 19:04:40 23° 265° (W) 19:07:43 437.200
ISS 13 Feb 19:16:51 19:18:07 12° 13° (NNE) 19:19:25 145.825
BRITE-PL 13 Feb 19:23:24 19:28:34 36° 263° (W) 19:33:37 437.365/2234.400
DOVE 4 13 Feb 19:27:24 19:32:26 76° 75° (ENE) 19:37:12 437.250
HO-68 13 Feb 19:30:55 19:37:49 53° 68° (ENE) 19:44:45 435.675
GONETS M04 13 Feb 19:35:18 19:43:42 46° 75° (ENE) 19:52:04
CANX-2 13 Feb 19:40:18 19:44:17 43° 73° (ENE) 19:48:18 2200.000
STRAND 1 13 Feb 19:41:12 19:46:19 62° 101° (E) 19:51:25 437.568
CINEMA 3 13 Feb 19:51:16 19:55:35 44° 73° (ENE) 19:59:45 145.822/145.860
Cosmos 2499 13 Feb 19:56:10 20:02:49 26° 68° (ENE) 20:09:03 435.465 / 435.565
PCSat 13 Feb 19:58:15 20:03:42 79° 243° (WSW) 20:09:06 145.827
COMPASS 1 13 Feb 20:07:00 20:10:55 41° 73° (ENE) 20:14:52 437.405
GOMX 1 13 Feb 20:08:28 20:12:45 24° 265° (W) 20:16:55 467.674
ZACube-1 13 Feb 20:08:50 20:10:05 11° 64° (ENE) 20:11:20 437.345
PRISM 13 Feb 20:14:55 20:18:52 40° 99° (E) 20:22:46 437.425
FUNcube-1 13 Feb 20:15:01 20:16:49 13° 65° (ENE) 20:18:38 145.935
SEEDS 13 Feb 20:28:40 20:32:50 77° 258° (WSW) 20:37:04 437.485
CUTE 1.7 + AOD 2 13 Feb 20:30:01 20:34:09 55° 260° (W) 20:38:19 437.475
AAUSAT CUBESAT 2 13 Feb 20:31:17 20:35:23 66° 75° (ENE) 20:39:31 437.432
AO-85 13 Feb 20:35:43 20:36:58 11° 256° (WSW) 20:38:13 145.980
Oscar 11 13 Feb 20:39:05 20:42:55 33° 71° (ENE) 20:46:47 145.826/435.025
RS-15 13 Feb 20:40:46 20:53:02 89° 63° (ENE) 21:05:24 29.354- 29.394
ISS 13 Feb 20:52:11 20:55:16 39° 33° (NNE) 20:58:21 145.825
UWE-3 13 Feb 20:57:33 21:01:42 59° 75° (ENE) 21:05:49 435.000/436.395/437.385
CUBEBUG 2 13 Feb 21:05:53 21:10:11 77° 258° (WSW) 21:14:23 437.445
DOVE 4 13 Feb 21:09:20 21:10:31 11° 270° (W) 21:11:41 437.250
AIST 1 13 Feb 21:11:02 21:14:50 29° 76° (ENE) 21:18:34
DELFI C3 13 Feb 21:11:31 21:15:13 38° 72° (ENE) 21:18:57 145.870
CANX-2 13 Feb 21:18:02 21:20:21 14° 268° (W) 21:22:42 2200.000
HO-68 13 Feb 21:19:46 21:25:45 28° 265° (W) 21:31:48 435.675
STRAND 1 13 Feb 21:21:51 21:24:58 16° 298° (WNW) 21:28:03 437.568
HUMSAT D 13 Feb 21:24:04 21:27:14 22° 69° (ENE) 21:30:26 437.325/437.525
CINEMA 3 13 Feb 21:30:08 21:32:54 16° 267° (W) 21:35:35 145.822/145.860
GONETS M04 13 Feb 21:32:28 21:40:17 38° 274° (W) 21:48:08
ZACube-1 13 Feb 21:41:45 21:45:53 59° 259° (W) 21:50:00 437.345
COMPASS 1 13 Feb 21:44:22 21:46:41 15° 268° (W) 21:49:02 437.405
Cosmos 2499 13 Feb 21:48:29 21:56:33 61° 269° (W) 22:03:59 435.465 / 435.565
FUNcube-1 13 Feb 21:48:34 21:52:39 51° 260° (W) 21:56:42 145.935
PRISM 13 Feb 21:51:16 21:53:51 16° 295° (WNW) 21:56:25 437.425
50 SAT 13 Feb 22:08:16 22:10:16 14° 66° (ENE) 22:12:17 437.505
VELOX 1 13 Feb 22:09:14 22:11:50 15° 64° (ENE) 22:14:26 145.980
UKube-1 13 Feb 22:15:10 22:17:47 16° 65° (ENE) 22:20:25 .
Oscar 11 13 Feb 22:15:58 22:19:07 20° 266° (W) 22:22:17 145.826/435.025
UNISAT 6 13 Feb 22:24:18 22:28:01 27° 96° (E) 22:31:48 437.425
AISAT 13 Feb 22:25:36 22:29:10 24° 68° (ENE) 22:32:43 437.250
ISS 13 Feb 22:29:04 22:31:31 20° 229° (SW) 22:33:58 145.825
CUBEBUG 1 13 Feb 22:32:37 22:36:02 22° 68° (ENE) 22:39:29 437.445
DX 1 13 Feb 22:33:42 22:37:30 29° 69° (ENE) 22:41:18 434.975-435.025
UWE-3 13 Feb 22:38:06 22:38:32 10° 270° (W) 22:38:57 435.000/436.395/437.385
DELFI C3 13 Feb 22:48:05 22:50:17 14° 268° (W) 22:52:30 145.870
AIST 1 13 Feb 22:49:01 22:52:13 21° 272° (W) 22:55:24
RS-15 13 Feb 22:55:11 23:03:57 24° 260° (W) 23:12:47 29.354- 29.394
HUMSAT D 13 Feb 22:59:20 23:02:45 26° 264° (W) 23:06:13 437.325/437.525
ESTCUBE 1 13 Feb 23:04:00 23:08:28 67° 75° (ENE) 23:13:00 437.505/2401.250
ANTELSAT 13 Feb 23:08:43 23:13:08 85° 104° (ESE) 23:17:37 437.575/2403.000
PHONESAT 2.4 13 Feb 23:12:15 23:15:08 29° 153° (SSE) 23:18:03 2401.200-2431.200
TIGRISAT 13 Feb 23:14:04 23:18:27 88° 281° (W) 23:22:55 435.000
POLYITAN 1 13 Feb 23:21:02 23:24:34 25° 96° (E) 23:28:05 437.675
QB50P2 13 Feb 23:21:26 23:25:00 27° 96° (E) 23:28:35 145.880/145.840
50 SAT 13 Feb 23:40:33 23:43:58 35° 262° (W) 23:47:25 437.505
VELOX 1 13 Feb 23:43:34 23:47:53 49° 260° (W) 23:52:14 145.980
TISAT 1 13 Feb 23:44:22 23:47:08 17° 66° (ENE) 23:49:53 437.305
UKube-1 13 Feb 23:49:19 23:53:28 45° 260° (W) 23:57:39 .
POPSAT HIP 1 13 Feb 23:49:35 23:53:43 54° 100° (E) 23:57:50 437.405
SPROUT 13 Feb 23:50:47 23:54:59 55° 74° (ENE) 23:59:11 437.525
DUCHIFAT 1 13 Feb 23:50:52 23:54:57 52° 100° (E) 23:59:02 145.980
NANOSAT C BR1 13 Feb 23:51:27 23:55:34 55° 100° (E) 23:59:41 145.865
UNISAT 6 14 Feb 00:01:01 00:04:39 26° 291° (WNW) 00:08:20 437.425
AISAT 14 Feb 00:01:33 00:05:30 30° 263° (W) 00:09:26 437.250
QB50P1 14 Feb 00:01:45 00:05:58 78° 102° (ESE) 00:10:10 145.935-145.965
BEESAT 3 14 Feb 00:04:58 00:06:23 12° 42° (NE) 00:07:47 437.485
CUBEBUG 1 14 Feb 00:08:11 00:12:10 32° 263° (W) 00:16:08 437.445
DX 1 14 Feb 00:10:10 00:13:40 23° 265° (W) 00:17:11 434.975-435.025
CUSAT 1 14 Feb 00:20:39 00:26:29 22° 84° (E) 00:32:13 437.405
Cosmos 2491 14 Feb 00:28:31 00:32:44 14° 60° (ENE) 00:36:55 435.465 / 435.565
BUGSAT 1 14 Feb 00:33:23 00:37:26 85° 103° (ESE) 00:41:27 437.445
BEESAT 2 14 Feb 00:36:32 00:38:57 15° 45° (NE) 00:41:22 435.950
ESTCUBE 1 14 Feb 00:44:45 00:45:43 11° 270° (W) 00:46:41 437.505/2401.250
PHONESAT 2.4 14 Feb 00:48:55 00:52:13 85° 348° (NNW) 00:55:30 2401.200-2431.200
ITUPSAT 1 14 Feb 00:53:59 00:57:22 20° 65° (ENE) 01:00:47 437.325
POLYITAN 1 14 Feb 00:56:52 01:00:17 24° 291° (WNW) 01:03:42 437.675
QB50P2 14 Feb 00:57:20 01:00:42 24° 291° (WNW) 01:04:04 145.880/145.840
BEESAT 14 Feb 00:59:07 01:02:46 22° 66° (ENE) 01:06:26 436.000
TISAT 1 14 Feb 01:18:33 01:22:30 38° 262° (W) 01:26:27 437.305
YUBILEINY 14 Feb 01:21:04 01:22:02 10° 73° (ENE) 01:23:01 435.215
JAS-2 14 Feb 01:21:28 01:25:16 19° 92° (E) 01:28:56 435.910
POPSAT HIP 1 14 Feb 01:27:13 01:29:03 13° 296° (WNW) 01:30:52 437.405
DUCHIFAT 1 14 Feb 01:28:18 01:30:13 13° 296° (WNW) 01:32:08 145.980
NANOSAT C BR1 14 Feb 01:29:08 01:30:50 12° 296° (WNW) 01:32:32 145.865
DANDE 14 Feb 01:29:37 01:37:02 43° 89° (E) 01:44:52 436.750
SPROUT 14 Feb 01:29:46 01:31:16 12° 269° (W) 01:32:48 437.525
Oscar 19 14 Feb 01:37:12 01:42:00 39° 98° (E) 01:46:46 437.125/150
BEESAT 3 14 Feb 01:40:41 01:44:40 78° 239° (WSW) 01:48:34 437.485
SWISSCUBE 14 Feb 01:50:44 01:55:30 83° 77° (ENE) 02:00:18 437.505
CUSAT 1 14 Feb 01:59:57 02:08:03 77° 280° (W) 02:15:55 437.405
BEESAT 2 14 Feb 02:13:16 02:17:09 53° 243° (WSW) 02:21:01 435.950
Cosmos 2491 14 Feb 02:22:25 02:31:12 75° 81° (E) 02:39:59 435.465 / 435.565
PHONESAT 2.4 14 Feb 02:26:18 02:29:34 70° 5° (N) 02:32:50 2401.200-2431.200
ITUPSAT 1 14 Feb 02:30:21 02:34:53 43° 261° (W) 02:39:27 437.325
STARS 14 Feb 02:33:48 02:36:18 15° 65° (ENE) 02:38:50 437.465
BEESAT 14 Feb 02:35:56 02:40:20 37° 262° (W) 02:44:45 436.000
Gurwin Techsat 1B 14 Feb 02:44:33 02:49:52 66° 102° (ESE) 02:55:09 435.225
ITAMSAT 1 14 Feb 02:55:59 03:00:58 42° 99° (E) 03:05:54 435.822/435.867
KKS-1 14 Feb 03:01:00 03:05:21 55° 73° (ENE) 03:09:42 437.445
JAS-2 14 Feb 03:05:31 03:10:44 45° 290° (WNW) 03:15:39 435.910
AIST 2 14 Feb 03:06:27 03:10:30 52° 55° (NE) 03:14:31 435.215
YUBILEINY 14 Feb 03:08:19 03:16:58 66° 92° (E) 03:25:42 435.215
DANDE 14 Feb 03:12:21 03:19:57 44° 287° (WNW) 03:27:55 436.750
Oscar 19 14 Feb 03:17:03 03:21:04 24° 294° (WNW) 03:25:04 437.125/150
MOZHAYETS 4 14 Feb 03:28:05 03:32:20 40° 72° (ENE) 03:36:38
Cosmos 2504 14 Feb 03:44:22 03:50:54 24° 81° (E) 03:57:33 435.465 / 435.565
CUSAT 1 14 Feb 03:46:39 03:51:22 16° 297° (WNW) 03:55:59 437.405
AO-7 14 Feb 04:01:05 04:09:01 47° 101° (E) 04:16:54 29.400- 29.500
SO-50 14 Feb 04:02:46 04:07:33 57° 117° (ESE) 04:12:24 436.795
PHONESAT 2.4 14 Feb 04:03:37 04:06:46 46° 202° (SSW) 04:09:55 2401.200-2431.200
STARS 14 Feb 04:08:01 04:12:16 48° 260° (W) 04:16:32 437.465
Cosmos 2491 14 Feb 04:20:56 04:27:02 22° 280° (W) 04:33:11 435.465 / 435.565
HORYU 2 14 Feb 04:20:57 04:24:32 23° 95° (E) 04:28:06 437.375
CUBESAT XI-V 14 Feb 04:23:06 04:26:02 17° 65° (ENE) 04:29:00 437.345
Gurwin Techsat 1B 14 Feb 04:26:06 04:29:14 16° 298° (WNW) 04:32:22 435.225
M-CUBED/EXP-1 PRIME 14 Feb 04:34:16 04:37:19 27° 103° (ESE) 04:40:33 437.505
ITAMSAT 1 14 Feb 04:36:05 04:40:09 23° 295° (WNW) 04:44:12 435.822/435.867
AUBIESAT-1 14 Feb 04:39:51 04:42:55 26° 103° (ESE) 04:46:08 437.475
KKS-1 14 Feb 04:40:16 04:42:15 13° 269° (W) 04:44:13 437.445
AIST 2 14 Feb 04:46:36 04:48:32 13° 252° (WSW) 04:50:27 435.215
MOZHAYETS 4 14 Feb 05:06:33 05:09:40 18° 267° (W) 05:12:49
YUBILEINY 14 Feb 05:07:24 05:14:26 26° 292° (WNW) 05:21:33 435.215
Cosmos 2504 14 Feb 05:34:45 05:43:22 71° 279° (W) 05:52:19 435.465 / 435.565
PHONESAT 2.4 14 Feb 05:43:25 05:43:30 10° 216° (SW) 05:43:33 2401.200-2431.200
SO-50 14 Feb 05:44:42 05:48:24 21° 315° (NW) 05:52:08 436.795
AO-7 14 Feb 05:54:07 06:01:36 39° 299° (WNW) 06:09:03 29.400- 29.500
HORYU 2 14 Feb 05:57:12 06:01:05 30° 291° (WNW) 06:04:59 437.375
CUBESAT XI-V 14 Feb 05:58:27 06:03:00 50° 261° (W) 06:07:36 437.345
M-CUBED/EXP-1 PRIME 14 Feb 06:09:26 06:11:50 18° 295° (WNW) 06:14:19 437.505
AUBIESAT-1 14 Feb 06:14:48 06:17:21 19° 295° (WNW) 06:20:00 437.475
O/OREOS (USA 219) 14 Feb 06:34:27 06:37:32 19° 100° (E) 06:40:39 437.305
LilacSat-2 14 Feb 06:35:26 06:38:58 37° 98° (E) 06:42:30 437.200
CUTE-I 14 Feb 06:47:21 06:52:41 60° 101° (E) 06:57:58 437.470
STRAND 1 14 Feb 06:55:52 07:00:58 79° 75° (ENE) 07:06:07 437.568
Cubesat XI-IV 14 Feb 07:02:34 07:08:00 82° 104° (ESE) 07:13:23 437.490
PRISM 14 Feb 07:03:38 07:07:05 26° 69° (ENE) 07:10:35 437.425
